Weather in Pishchanka

Ukraine / Vinnytsia Region     48°12′20″N   28°53′20″E
temp.,
°C
wind,
m/s
gust,
m/s
humid.,
%
clouds,
%
prec.,
mm/h
press.,
hPa
HPBL,
m
26 september, sun
sun2600:00+13wnw514755 0.0 1019375
03:00+12wsw41179100 0.0 1019278
06:00+14w51266100 0.0 1019434
09:00+15wnw51067100 0.0 1020455
12:00+17wnw5863100 0.0 1021677
15:00+20wnw795366 0.0 10201625
18:00+19nw684899 0.0 1019918
21:00+13n387395 0.0 1021160
27 september, mon
mon2700:00+11nne3668100 0.0 102299
03:00+10nne3475100 0.0 102263
06:00+8nne33835 0.0 102242
09:00+11ne346919 0.0 1023256
12:00+16ne33465 0.0 10221150
15:00+18nne44370 0.0 10201540
18:00+16ne46430 0.0 1020442
21:00+11ne47600 0.0 1022121
28 september, tue
tue2800:00+9ene49710 0.0 1023221
03:00+7ene36826 0.0 1023128
06:00+6ne3689100 0.0 1024128
09:00+9ene46730 0.0 1024345
12:00+14ene45504 0.0 10241307
15:00+17ene333940 0.0 10231907
18:00+15ene564480 0.0 1024659
21:00+12ene375376 0.0 1026255
29 september, wed
wed2900:00+12ene365296 0.0 1027181
03:00+11ene3556100 0.0 1027172
06:00+10ene4675100 0.0 1028308
09:00+10e677220 0.0 1029541
12:00+14e555030 0.0 10291482
15:00+14e4445100 0.1 10291666
18:00+13e4546100 0.0 10291062
21:00+10e595953 0.0 1031386
30 september, thu
thu3000:00+7e49675 0.0 1032227
03:00+6e410705 0.0 1031213
06:00+10e485982 0.0 1031345
09:00+10ese57565 0.0 1031518
12:00+14ese44435 0.0 10311371
15:00+16ese44364 0.0 10301589
18:00+14ese35390 0.0 1030217
21:00+10ese33470 0.0 103148